TimeCEST,TemperatureF,Dew PointF,Humidity,Sea Level PressureIn,VisibilityMPH,Wind Direction,Wind SpeedMPH,Gust SpeedMPH,PrecipitationIn,Events,Conditions,WindDirDegrees,DateUTC
12:15 AM,71.6,68.0,88,30.01,-9999.0,South,3.5,-,N/A,,Clear,170,2012-09-11 22:15:00
12:45 AM,69.8,68.0,94,30.01,-9999.0,SSE,3.5,-,N/A,,Clear,160,2012-09-11 22:45:00
1:15 AM,71.6,69.8,94,30.01,-9999.0,SSW,2.3,-,N/A,,Clear,200,2012-09-11 23:15:00
1:45 AM,71.6,68.0,88,30.01,6.2,SW,1.2,-,N/A,,Scattered Clouds,230,2012-09-11 23:45:00
2:15 AM,71.6,68.0,88,30.01,6.2,SW,2.3,-,N/A,,Scattered Clouds,230,2012-09-12 00:15:00
2:45 AM,69.8,68.0,94,29.98,5.0,SSE,1.2,-,N/A,,Scattered Clouds,160,2012-09-12 00:45:00
3:15 AM,69.8,66.2,88,29.98,5.0,SSE,5.8,-,N/A,,Scattered Clouds,150,2012-09-12 01:15:00
3:45 AM,69.8,66.2,88,29.98,5.0,South,3.5,-,N/A,,Scattered Clouds,170,2012-09-12 01:45:00
4:15 AM,69.8,66.2,88,29.98,5.0,SSE,3.5,-,N/A,,Scattered Clouds,160,2012-09-12 02:15:00
4:45 AM,69.8,66.2,88,29.98,5.0,South,3.5,-,N/A,,Scattered Clouds,170,2012-09-12 02:45:00
5:15 AM,68.0,66.2,94,29.98,5.0,South,3.5,-,N/A,,Scattered Clouds,170,2012-09-12 03:15:00
5:45 AM,69.8,66.2,88,29.98,5.0,South,4.6,-,N/A,,Scattered Clouds,180,2012-09-12 03:45:00
6:15 AM,69.8,66.2,88,29.98,4.3,SW,1.2,-,N/A,,Scattered Clouds,230,2012-09-12 04:15:00
6:45 AM,68.0,66.2,94,29.98,4.3,ESE,2.3,-,N/A,,Scattered Clouds,120,2012-09-12 04:45:00
7:15 AM,68.0,66.2,94,29.98,5.0,ESE,2.3,-,N/A,,Scattered Clouds,110,2012-09-12 05:15:00
7:45 AM,68.0,66.2,94,29.98,5.0,ESE,5.8,-,N/A,,Scattered Clouds,110,2012-09-12 05:45:00
8:15 AM,68.0,64.4,88,29.98,5.0,ESE,4.6,-,N/A,,Scattered Clouds,110,2012-09-12 06:15:00
8:45 AM,71.6,68.0,88,29.95,5.0,ESE,3.5,-,N/A,,Scattered Clouds,110,2012-09-12 06:45:00
9:15 AM,73.4,68.0,83,29.95,5.6,ESE,2.3,-,N/A,,Scattered Clouds,120,2012-09-12 07:15:00
9:45 AM,73.4,69.8,88,29.95,5.6,SE,2.3,-,N/A,,Scattered Clouds,140,2012-09-12 07:45:00
10:15 AM,75.2,66.2,73,29.95,5.6,South,2.3,-,N/A,,Partly Cloudy,190,2012-09-12 08:15:00
10:45 AM,77.0,68.0,74,29.95,6.2,South,2.3,-,N/A,,Partly Cloudy,170,2012-09-12 08:45:00
11:15 AM,78.8,64.4,61,29.95,6.2,South,5.8,-,N/A,,Partly Cloudy,190,2012-09-12 09:15:00
11:45 AM,80.6,62.6,54,29.92,6.2,SSW,5.8,-,N/A,,Partly Cloudy,210,2012-09-12 09:45:00
12:15 PM,80.6,64.4,58,29.92,6.2,South,9.2,-,N/A,,Partly Cloudy,190,2012-09-12 10:15:00
12:45 PM,80.6,62.6,54,29.92,6.2,SSW,9.2,-,N/A,,Scattered Clouds,210,2012-09-12 10:45:00
1:15 PM,82.4,64.4,54,29.92,6.2,SW,9.2,-,N/A,,Scattered Clouds,230,2012-09-12 11:15:00
1:45 PM,80.6,66.2,61,29.92,6.2,SW,11.5,-,N/A,,Scattered Clouds,220,2012-09-12 11:45:00
2:15 PM,80.6,68.0,65,29.92,6.2,SSW,11.5,-,N/A,,Scattered Clouds,210,2012-09-12 12:15:00
2:45 PM,80.6,66.2,61,29.89,6.2,SSW,10.4,-,N/A,,Scattered Clouds,210,2012-09-12 12:45:00
3:15 PM,80.6,68.0,65,29.89,6.2,South,12.7,-,N/A,,Scattered Clouds,190,2012-09-12 13:15:00
3:45 PM,78.8,68.0,69,29.89,6.2,SSW,10.4,-,N/A,,Scattered Clouds,200,2012-09-12 13:45:00
4:15 PM,78.8,68.0,69,29.86,6.2,SSW,11.5,-,N/A,,Scattered Clouds,200,2012-09-12 14:15:00
4:45 PM,78.8,69.8,74,29.86,6.2,South,10.4,-,N/A,,Scattered Clouds,190,2012-09-12 14:45:00
5:15 PM,77.0,68.0,74,29.86,6.2,South,11.5,-,N/A,,Scattered Clouds,190,2012-09-12 15:15:00
5:45 PM,77.0,68.0,74,29.83,6.2,SSW,12.7,-,N/A,,Scattered Clouds,200,2012-09-12 15:45:00
6:15 PM,77.0,69.8,78,29.83,6.2,South,12.7,-,N/A,,Scattered Clouds,190,2012-09-12 16:15:00
6:45 PM,75.2,68.0,78,29.80,6.2,South,12.7,-,N/A,,Scattered Clouds,180,2012-09-12 16:45:00
7:15 PM,75.2,69.8,83,29.80,6.2,SSW,9.2,-,N/A,,Mostly Cloudy,200,2012-09-12 17:15:00
7:45 PM,73.4,68.0,83,29.80,6.2,South,11.5,-,N/A,,Mostly Cloudy,170,2012-09-12 17:45:00
8:15 PM,73.4,68.0,83,29.80,5.0,South,11.5,-,N/A,,Mostly Cloudy,170,2012-09-12 18:15:00
8:45 PM,73.4,68.0,83,29.80,5.0,South,10.4,-,N/A,,Scattered Clouds,170,2012-09-12 18:45:00
9:15 PM,73.4,69.8,88,29.80,5.0,South,11.5,-,N/A,,Scattered Clouds,170,2012-09-12 19:15:00
9:45 PM,73.4,68.0,83,29.80,5.0,South,13.8,-,N/A,,Scattered Clouds,170,2012-09-12 19:45:00
10:15 PM,73.4,68.0,83,29.80,5.0,SSE,15.0,-,N/A,Thunderstorm,Thunderstorm,160,2012-09-12 20:15:00
10:45 PM,71.6,68.0,88,29.77,5.0,SSE,16.1,-,N/A,Thunderstorm,Thunderstorm,160,2012-09-12 20:45:00
11:15 PM,71.6,68.0,88,29.74,6.2,SSE,17.3,-,N/A,,Scattered Clouds,160,2012-09-12 21:15:00
11:45 PM,71.6,68.0,88,29.74,6.2,SSE,16.1,-,N/A,,Scattered Clouds,160,2012-09-12 21:45:00